Back to catalog

ARIANE 1 DEB

AliveSSO
NORAD 17702·DEBRIS·🇫🇷 France

Launched Feb 22, 1986 from Guiana Space Centre

Loading…

Next Passes (next 24 hours)

TLE

FreshSource: Space-Track

Epoch: Sep 14, 2026, 00:51 UTC

1 17702U 86019LU  26257.03588877  .00000883  00000-0  20905-3 0  9997
2 17702  98.0326 276.9492 0005502 163.4327 196.7053 14.56328255 91961

Track ARIANE 1 DEB in real time with AllMySat

Download on the App Store